Regional Weather Roundup
Issued by NWS

Home | Current Version | Previous Version | Graphics & Text | Print | Product List | Glossary On
Versions: 1 2 3 4 5 6 7 8 9 10 11 12 13 14 15 16 17 18 19 20 21 22 23 24 25 26 27 28 29 30 31 32 33 34 35 36 37 38 39 40 41 42 43 44 45 46 47 48 49 50
000
ASUS43 KMPX 252310
RWRMN
WEATHER ROUNDUP FOR MINNESOTA
NATIONAL WEATHER SERVICE TWIN CITIES/CHANHASSEN MN
600 PM CDT SUN JUN 25 2017


NOTE: "FAIR" INDICATES FEW OR NO CLOUDS BELOW 12,000 FEET WITH NO
SIGNIFICANT WEATHER AND/OR OBSTRUCTIONS TO VISIBILITY. N/A MEANS
CURRENT SKY AND/OR WEATHER CONDITIONS ARE NOT AVAILABLE.

MNZ060>063-068>070-260000-
   Twin Cities Metro

CITY           SKY/WX    TMP DP  RH WIND       PRES   REMARKS
TWIN CITIES    MOSUNNY   66  39  37 NW20G28   30.12F
ST PAUL        SUNNY     67  42  40 NW16G25   30.12F
CRYSTAL        MOSUNNY   68  37  32 NW16G26   30.11F
BLAINE         MOSUNNY   70  39  32 NW16G25   30.11F
LAKEVILLE      MOSUNNY   66  41  39 NW17G25   30.13S
EDEN PRAIRIE   MOSUNNY   69  40  34 NW14G25   30.12F
SOUTH ST PAUL  MOSUNNY   67  39  35 NW10G20   30.12S
LAKE ELMO      FAIR      64  43  45 NW10G21   30.12S
$$
MNZ001>005-007-008-013>017-022>024-027-028-260000-
   Northwest Minnesota

CITY           SKY/WX    TMP DP  RH WIND       PRES   REMARKS
BEMIDJI        LGT RAIN  52  45  77 N13G26    30.16S
HALLOCK        LGT RAIN  55  48  76 NW12G26   30.19R
ROSEAU         SUNNY     57  50  77 W10       30.17F
WARROAD        MOSUNNY   59  45  58 N10       30.16S
THIEF RVR FALL CLOUDY    59  44  57 W10       30.18R
CROOKSTON      MOSUNNY   64  39  39 N17G23    30.17F
FOSSTON        MOSUNNY   61  46  59 N13       30.17S
DETROIT LAKES  MOSUNNY   64  41  42 NW13      30.17S
MOORHEAD       MOSUNNY   66  39  37 N15G21    30.16F
PARK RAPIDS    PTSUNNY   62  36  37 N15G22    30.14S
MAHNOMEN       FAIR      64  37  37 N18G24    30.15S
$$
MNZ006-009>011-018-025>026-260000-
   North Central Minnesota

CITY           SKY/WX    TMP DP  RH WIND       PRES   REMARKS
BAUDETTE       SUNNY     60  45  57 NW15      30.14S
FLAG ISLAND    SUNNY     57  45  62 NW12      30.14S
INTL FALLS     CLOUDY    56  44  64 NE6       30.12S
WASKISH        MOSUNNY   61  46  59 NW9G16    30.14S
BIG FORK       HVY RAIN  52  46  82 E3        30.13S
LONGVILLE      PTSUNNY   57  45  62 N6        30.14S
GRAND RAPIDS   MOSUNNY   59  42  53 NW17      30.13F
CRANE LAKE     CLOUDY    54  46  76 N6        30.13F
ORR            MOSUNNY   54  41  62 CALM      30.09F
COOK           MOSUNNY   55  43  62 N6        30.12S
WALKER         RAIN      54  44  69 NW15G25   30.15R
$$
MNZ012-019>021-037-260000-
   Northeast Minnesota

CITY           SKY/WX    TMP DP  RH WIND       PRES   REMARKS
DULUTH         LGT RAIN  54  48  80 NW16G22   30.09R
ELY            CLOUDY    48  46  93 NW7       30.10R
HIBBING        PTSUNNY   53  46  77 N9        30.11S
EVELETH        MOSUNNY   57  45  63 NW8       30.11S
DULUTH HARBOR  CLOUDY    61  48  63 NW15      30.09S
TWO HARBORS    MOSUNNY   61  48  63 N7        30.06S
SILVER BAY     CLOUDY    57  48  72 W5        30.04F
GRAND MARAIS     N/A     46  46 100 W5        30.03F
G MARAIS ARPRT RAIN      48  45  87 CALM      30.04S
$$
MNZ029>031-032-039>041-046>048-054>057-064-260000-
   West Central Minnesota

CITY           SKY/WX    TMP DP  RH WIND       PRES   REMARKS
FERGUS FALLS   PTSUNNY   61  46  59 W12G22    30.15S
WHEATON        PTSUNNY   63  45  51 NE7       30.19S
MORRIS         MOSUNNY   64  45  48 N7        30.17F
ALEXANDRIA     CLOUDY    62  43  49 NW13      30.18S
ELBOW LAKE     CLOUDY    61  48  63 NW8       30.17F
WADENA         MOSUNNY   63  43  48 NW12      30.14F
GLENWOOD       MOSUNNY   63  45  51 W13       30.17F
APPLETON       PTSUNNY   66  45  45 N5        30.18F
BENSON         CLOUDY    66  46  48 N8        30.19F
ORTONVILLE     MOSUNNY   64  43  45 W10G21    30.18F
MADISON        PTSUNNY   66  46  48 NW17G24   30.19F
WILLMAR        PTSUNNY   66  43  42 NW22G30   30.19R
$$
MNZ033>034-036-042>043-049>051-058-059-260000-
   Central Minnesota

CITY           SKY/WX    TMP DP  RH WIND       PRES   REMARKS
ST CLOUD       MOSUNNY   66  40  38 NW14G24   30.13F
SAUK CENTRE    CLOUDY    64  40  42 NW15G26   30.16S
PAYNESVILLE    CLOUDY    64  39  39 NW10G18   30.17S
AITKIN         MOSUNNY   61  46  59 N9        30.11S
PINE RIVER     PTSUNNY   64  43  45 NW10G18   30.16S
BRAINERD       MOSUNNY   64  37  36 NW18G24   30.12F
STAPLES        MOSUNNY   64  37  36 NW13      30.14S
LONG PRAIRIE   PTSUNNY   63  39  42 W17G25    30.16S
LITTLE FALLS   MOSUNNY   64  34  32 NW10G18   30.14F
LITCHFIELD     MOSUNNY   68  45  42 N15       30.16F
BUFFALO        MOSUNNY   66  38  35 W9        30.15F
MAPLE LAKE     MOSUNNY   67  42  41 W10G17    30.15F
HUTCHINSON     MOSUNNY   68  42  39 NW18G25   30.16F
$$
MNZ037-044-045-052-053-260000-
   East Central Minnesota

CITY           SKY/WX    TMP DP  RH WIND       PRES   REMARKS
PRINCETON      MOSUNNY   68  39  34 W17G24    30.12F
MORA           SUNNY     63  43  48 NW15G21   30.13F
CAMBRIDGE      MOSUNNY   66  46  48 NW9G16    30.10F
RUSH CITY      MOSUNNY   63  41  45 NW8G17    30.11F
MOOSE LAKE     SUNNY     61  43  51 N7        30.09S
HINCKLEY       FAIR      64  41  42 N13G22    30.10F
CLOQUET        LGT RAIN  54  45  71 N14G26    30.11R
MCGREGOR       PTSUNNY   59  45  58 NW13      30.12S
$$
MNZ071>073-080-081-089-090-097-098-260000-
   Southwest Minnesota

CITY           SKY/WX    TMP DP  RH WIND       PRES   REMARKS
MONTEVIDEO     PTSUNNY   70  45  40 N9G18     30.18F
GRANITE FALLS  CLOUDY    68  47  47 W12       30.20F
CANBY          CLOUDY    64  44  46 NW17G24   30.22F
MARSHALL       PTSUNNY   65  44  46 NW18      30.20
REDWOOD FALLS  CLOUDY    66  41  40 W16       30.18F
OLIVIA         CLOUDY    64  43  45 NW13G25   30.17S
PIPESTONE      MOSUNNY   70  41  35 N13G18    30.21F
WINDOM         MOSUNNY   66  39  37 NW15G23   30.21S
WORTHINGTON    CLOUDY    66  42  41 NW12      30.22S
JACKSON        MOSUNNY   66  36  32 NW16G23   30.21F
TRACY          CLOUDY    66  45  45 NW15G22   30.22S
SLAYTON        CLOUDY    65  41  42 NW15G23   30.22F
$$
MNZ065>067-074>077-082>085-091>093-260000-
   South Central Minnesota

CITY           SKY/WX    TMP DP  RH WIND       PRES   REMARKS
MANKATO        MOSUNNY   67  38  34 NW18      30.16F
NEW ULM        MOSUNNY   66  37  34 NW21      30.17F
ST JAMES       PTSUNNY   70  41  35 NW17G23   30.19F
FAIRMONT       MOSUNNY   68  42  38 NW13G25   30.19F
GLENCOE        SUNNY     68  44  42 NW12G20   30.15F
FARIBAULT      MOSUNNY   66  39  37 W10G23    30.15S
OWATONNA       PTSUNNY   66  43  42 NW15G23   30.15S
WASECA         MOSUNNY   64  37  36 NW18G24   30.17F
ALBERT LEA     MOSUNNY   66  36  32 NW10G18   30.16S
$$
MNZ078>079-086>088-094>096-260000-
   Southeast Minnesota

CITY           SKY/WX    TMP DP  RH WIND       PRES   REMARKS
ROCHESTER      MOSUNNY   66  43  43 NW17G24   30.14F
RED WING       MOSUNNY   66  37  34 NW9       30.10F
STANTON        MOSUNNY   66  41  40 NW17G23   30.12F
DODGE CENTER   PTSUNNY   66  41  39 NW16G23   30.14F
WINONA         MOSUNNY   68  45  42 NW16G24   30.11S
AUSTIN         MOSUNNY   64  39  39 NW17G24   30.15S
PRESTON        MOSUNNY   63  43  47 NW17G23   30.14S
$$
ABBREVIATIONS USED IN REMARKS
   TC - TEMPERATURES IN CELSIUS
  WCI - WIND CHILL INDEX
   HX - HEAT INDEX
  VSB - VISIBILITY
$$




USA.gov is the U.S. government's official web portal to all federal, state and local government web resources and services.